Regional Weather Roundup
Issued by NWS Sioux Falls, SD

Home | Current Version | Previous Version | Graphics & Text | Print | Product List | Glossary On
Versions: 1 2 3 4 5 6 7 8 9 10 11 12 13 14 15 16 17 18 19 20 21 22 23 24 25 26 27 28 29 30 31 32 33 34 35 36 37 38 39 40 41 42 43 44 45 46 47 48 49 50
361
ASUS43 KFSD 261010
RWRFSD

WEATHER ROUNDUP FOR SE SOUTH DAKOTA/SW MINNESOTA/NW IOWA
NATIONAL WEATHER SERVICE SIOUX FALLS SD
500 AM CDT SUN MAR 26 2017

NOTE: "FAIR" INDICATES FEW OR NO CLOUDS BELOW 12,000 FEET WITH NO
SIGNIFICANT WEATHER AND OR OBSTRUCTIONS TO VISIBILITY.


SDZ038>040-050-052>070-261100-
SOUTHEAST SOUTH DAKOTA

CITY           SKY/WX    TMP DP  RH WIND       PRES   REMARKS
BROOKINGS      LGT RAIN  36  36 100 E5        29.91S VSB 3/4
CHAMBERLAIN    CLOUDY    40  40  99 E3        29.91S
HURON          CLOUDY    39  38  96 E3        29.92F
MADISON        FOG       34  34 100 E5        29.91S VSB<1/4 WCI  30
MITCHELL       CLOUDY    39  38  96 CALM      29.93S FOG
SIOUX FALLS    CLOUDY    38  37  97 NE6       29.91S FOG
WINNER         CLOUDY    41  39  93 S5        29.88F
YANKTON        CLOUDY    37  36  93 CALM      29.92R
$$

MNZ071-072-080-081-089-090-097-098-261100-
SOUTHWEST MINNESOTA

CITY           SKY/WX    TMP DP  RH WIND       PRES   REMARKS
FAIRMONT       CLOUDY    36  35  96 NE8       29.90F
JACKSON        CLOUDY    36  36 100 NE6       29.90F FOG
LUVERNE        FOG       36  34  93 NE3       29.90F VSB 1/2
MARSHALL       CLOUDY    36  35  96 NE5       29.94S
MONTEVIDEO     CLOUDY    36  36 100 CALM      29.97S
PIPESTONE      FOG       36  34  93 CALM      29.90S VSB 1/4
REDWOOD FALLS  CLOUDY    38  35  89 CALM      29.93F FOG
TRACY          CLOUDY    37  37  99 NE3       29.92S FOG
WINDOM         DRIZZLE   36  36 100 N5        29.91S
WORTHINGTON    FOG       35  35 100 NE8       29.90F VSB 1/4 WCI  29
$$

IAZ001>003-012>014-020>022-031-032-NEZ013-014-SDZ071-261100-
NORTHWEST IOWA

CITY           SKY/WX    TMP DP  RH WIND       PRES   REMARKS
CHEROKEE       CLOUDY    37  37 100 N5        29.89S FOG
ESTHERVILLE    CLOUDY    35  35 100 NE7       29.88F WCI  29
LE MARS        CLOUDY    37  37 100 N5        29.91S
ORANGE CITY    FOG       37  37 100 NE3       29.89F VSB 1
SHELDON        CLOUDY    36  36 100 NE6       29.88F FOG
SIOUX CITY     CLOUDY    39  38  96 NE7       29.90S
SPENCER        CLOUDY    37  36  96 N7        29.89F
STORM LAKE     CLOUDY    36  36 100 NE8       29.88S FOG
$$

ABBREVIATIONS USED IN REMARKS
   TC - TEMPERATURE IN CELSIUS
  WCI - WIND CHILL INDEX
   HX - HEAT INDEX
  VSB - VISIBILITY





USA.gov is the U.S. government's official web portal to all federal, state and local government web resources and services.